Weather History for Guatemala Aeropuertola Aurora, Guatemala

Change the Weather History Date:

Wednesday, August 7, 2013

  Actual Average Record
Temperature  
Mean Temperature 71 °F -  
Max Temperature 80 °F 75 °F - ()
Min Temperature 62 °F 60 °F - ()
Cooling Degree Days 6    
Growing Degree Days 21 (Base 50)    
Moisture  
Dew Point 57 °F    
Average Humidity 64    
Maximum Humidity 94    
Minimum Humidity 34    
Precipitation  
Precipitation 0.00 in - - ()
Sea Level Pressure  
Sea Level Pressure 30.26 in    
Wind  
Wind Speed 10 mph ()    
Max Wind Speed 14 mph    
Max Gust Speed -    
Visibility 6.2 miles    
Events      
T = Trace of Precipitation, MM = Missing Value Source: Averaged Metar Reports

Daily Weather History Graph

Daily Weather History Graph

Search for Another Location

Airport:

Trip Planner

Search our weather history database for the weather conditions in past years. The results will help you decide how hot, cold, wet, or windy it might be!

Date:

Astronomy

Aug. 07, 2013 Rise Set
Actual Time 5:46 AM CST 6:28 PM CST
Civil Twilight 5:24 AM CST 6:51 PM CST
Nautical Twilight 4:58 AM CST 7:17 PM CST
Astronomical Twilight 4:31 AM CST 7:44 PM CST
Moon 6:18 AM CST (8/7) 6:58 PM CST (8/7)
Length of Visible Light 13h 26m
Length of Day
12h 41m
New Moon, 1% of the Moon is Illuminated
Aug 7
New Moon
Aug 14
First Quarter
Aug 20
Full
Aug 28
Last Quarter
Sep 5
New

Hourly Weather History & Observations

Time (CST) Temp. Dew Point Humidity Pressure Visibility Wind Dir Wind Speed Gust Speed Precip Events Conditions
12:00 AM 64.4 °F 60.8 °F 88% 30.36 in 6.2 mi North 13.8 mph - N/A   Scattered Clouds
1:00 AM 75.2 °F 57.2 °F 53% 30.30 in 6.2 mi North 11.5 mph - N/A   Partly Cloudy
2:00 AM 64.4 °F 62.6 °F 94% 30.33 in 6.2 mi North 11.5 mph - N/A   Scattered Clouds
3:00 AM 64.4 °F 60.8 °F 88% 30.30 in 6.2 mi NNW 6.9 mph - N/A   Mostly Cloudy
4:00 AM 62.6 °F 60.8 °F 94% 30.30 in 6.2 mi North 6.9 mph - N/A   Mostly Cloudy
5:00 AM 62.6 °F 60.8 °F 94% 30.30 in 6.2 mi North 6.9 mph - N/A   Scattered Clouds
6:00 AM 63 °F 60 °F 89% 29.99 in 25 mi NNE 11.5 mph - -   Overcast
6:00 AM 62.6 °F 60.8 °F 94% 30.30 in 6.2 mi NNE 11.5 mph - N/A   Mostly Cloudy
7:00 AM 64.4 °F 60.8 °F 88% 30.33 in 6.2 mi NNE 9.2 mph - N/A   Mostly Cloudy
8:00 AM 68.0 °F 60.8 °F 78% 30.33 in 6.2 mi NNE 9.2 mph - N/A   Scattered Clouds
9:00 AM 69.8 °F 57.2 °F 64% 30.33 in 6.2 mi North 9.2 mph - N/A   Partly Cloudy
10:00 AM 73.4 °F 57.2 °F 57% 30.33 in 6.2 mi North 6.9 mph - N/A   Partly Cloudy
11:00 AM 75.2 °F 57.2 °F 53% 30.30 in 6.2 mi North 11.5 mph - N/A   Partly Cloudy
12:00 PM 77 °F 54 °F 34% 29.93 in 25 mi North 11.5 mph - -   Scattered Clouds
12:00 PM 77.0 °F 53.6 °F 44% 30.30 in 6.2 mi North 11.5 mph - N/A   Partly Cloudy
1:00 PM 78.8 °F 53.6 °F 42% 30.27 in 6.2 mi NNE 13.8 mph - N/A   Partly Cloudy
2:00 PM 78.8 °F 51.8 °F 39% 30.24 in 6.2 mi NNE 13.8 mph - N/A   Partly Cloudy
3:00 PM 78.8 °F 51.8 °F 39% 30.24 in 6.2 mi NNE 13.8 mph - N/A   Partly Cloudy
4:00 PM 80.6 °F 51.8 °F 37% 30.21 in 6.2 mi NNE 11.5 mph - N/A   Partly Cloudy
5:00 PM 77.0 °F 50.0 °F 39% 30.21 in 6.2 mi NNE 13.8 mph - N/A   Partly Cloudy
6:00 PM 75.2 °F 48.2 °F 38% 30.24 in 6.2 mi North 13.8 mph - N/A   Scattered Clouds
7:00 PM 71.6 °F 55.4 °F 57% 30.24 in - North 13.8 mph - N/A   Clear
8:00 PM 69.8 °F 55.4 °F 60% 30.27 in - North 9.2 mph - N/A   Clear
9:00 PM 68.0 °F 57.2 °F 68% 30.30 in - North 9.2 mph - N/A   Clear
10:00 PM 68.0 °F 55.4 °F 64% 30.33 in - North 11.5 mph - N/A   Clear
11:00 PM 66.2 °F 59.0 °F 78% 30.30 in - North 13.8 mph - N/A   Clear